Weather History for Cancun, Mexico

Change the Weather History Date:

Monday, January 14, 2013

  Actual Average Record
Temperature  
Mean Temperature 78 °F -  
Max Temperature 84 °F 81 °F 87 °F (1999)
Min Temperature 73 °F 63 °F 57 °F (2001)
Cooling Degree Days 14    
Growing Degree Days 28 (Base 50)    
Moisture  
Dew Point 72 °F    
Average Humidity 81    
Maximum Humidity 94    
Minimum Humidity 66    
Precipitation  
Precipitation 0.00 in - - ()
Sea Level Pressure  
Sea Level Pressure 30.02 in    
Wind  
Wind Speed 9 mph ()    
Max Wind Speed 16 mph    
Max Gust Speed -    
Visibility 6.9 miles    
Events Rain    
Averages and records for this station are not official NWS values.
T = Trace of Precipitation, MM = Missing Value Source: Averaged Metar Reports

Daily Weather History Graph

Daily Weather History Graph

Search for Another Location

Airport:

Trip Planner

Search our weather history database for the weather conditions in past years. The results will help you decide how hot, cold, wet, or windy it might be!

Date:

Astronomy

Jan. 14, 2013 Rise Set
Actual Time 6:27 AM CST 5:26 PM CST
Civil Twilight 6:03 AM CST 5:50 PM CST
Nautical Twilight 5:36 AM CST 6:17 PM CST
Astronomical Twilight 5:09 AM CST 6:44 PM CST
Moon 8:29 AM CST (1/14) 8:37 PM CST (1/14)
Length of Visible Light 11h 46m
Length of Day
10h 59m
Waxing Crescent, 11% of the Moon is Illuminated
Jan 14
Waxing Crescent
Jan 18
First Quarter
Jan 26
Full
Feb 3
Last Quarter
Feb 10
New

Hourly Weather History & Observations

Time (CST) Temp. Heat Index Dew Point Humidity Pressure Visibility Wind Dir Wind Speed Gust Speed Precip Events Conditions
12:45 AM 73.4 °F - 71.6 °F 94% 29.99 in 7.0 mi SE 10.4 mph - N/A   Clear
1:44 AM 73.4 °F - 69.8 °F 88% 29.99 in 7.0 mi ESE 11.5 mph - N/A   Clear
2:46 AM 73.4 °F - 69.8 °F 88% 29.96 in 7.0 mi ESE 8.1 mph - N/A   Partly Cloudy
3:45 AM 73.4 °F - 69.8 °F 88% 29.98 in 7.0 mi SE 10.4 mph - N/A   Scattered Clouds
4:44 AM 73.4 °F - 69.8 °F 88% 29.99 in 7.0 mi East 5.8 mph - N/A   Scattered Clouds
5:43 AM 73.4 °F - 69.8 °F 88% 29.98 in 7.0 mi SE 8.1 mph - N/A   Scattered Clouds
6:42 AM 77.0 °F - 71.6 °F 83% 30.02 in 7.0 mi SE 6.9 mph - N/A   Scattered Clouds
7:43 AM 78.8 °F - 71.6 °F 78% 30.04 in 7.0 mi ESE 6.9 mph - N/A   Scattered Clouds
8:43 AM 80.6 °F 84.6 °F 71.6 °F 74% 30.06 in 7.0 mi ESE 11.5 mph - N/A   Scattered Clouds
9:41 AM 82.4 °F 87.2 °F 71.6 °F 70% 30.06 in 7.0 mi ESE 15.0 mph - N/A   Scattered Clouds
10:41 AM 82.4 °F 87.2 °F 71.6 °F 70% 30.04 in 7.0 mi SE 15.0 mph - N/A   Mostly Cloudy
11:45 AM 84.2 °F 89.6 °F 71.6 °F 66% 30.02 in 7.0 mi SE 16.1 mph - N/A   Mostly Cloudy
12:44 PM 84.2 °F 89.6 °F 71.6 °F 66% 30.00 in 7.0 mi SE 16.1 mph - N/A   Mostly Cloudy
1:41 PM 82.4 °F 88.2 °F 73.4 °F 74% 29.99 in 7.0 mi SE 13.8 mph - N/A   Mostly Cloudy
2:42 PM 80.6 °F 85.4 °F 73.4 °F 79% 29.99 in 7.0 mi SE 12.7 mph - N/A   Mostly Cloudy
3:02 PM 78.8 °F - 73.4 °F 83% 3.00 in 6.0 mi SE 13.8 mph - N/A Rain Light Rain
3:42 PM 78.8 °F - 71.6 °F 78% 30.01 in 7.0 mi SE 10.4 mph - N/A   Mostly Cloudy
4:43 PM 80.6 °F 84.6 °F 71.6 °F 74% 30.02 in 7.0 mi East 5.8 mph - N/A   Scattered Clouds
5:42 PM 77.0 °F - 73.4 °F 89% 30.03 in 6.0 mi ESE 6.9 mph - N/A   Mostly Cloudy
6:45 PM 77.0 °F - 73.4 °F 89% 30.04 in 7.0 mi ESE 8.1 mph - N/A   Mostly Cloudy
7:44 PM 77.0 °F - 71.6 °F 83% 30.04 in 7.0 mi ESE 8.1 mph - N/A   Mostly Cloudy
8:48 PM 77.0 °F - 71.6 °F 83% 30.05 in 7.0 mi ESE 10.4 mph - N/A   Scattered Clouds
9:47 PM 77.0 °F - 71.6 °F 83% 30.04 in 7.0 mi East 5.8 mph - N/A   Partly Cloudy
10:44 PM 77.0 °F - 71.6 °F 83% 30.03 in 7.0 mi ESE 8.1 mph - N/A   Scattered Clouds
11:48 PM 77.0 °F - 71.6 °F 83% 30.03 in 7.0 mi ESE 9.2 mph - N/A   Scattered Clouds